This demonstration page uses our WeatherBlox Daily Observations layout. Learn more.

38.88101, -77.10428

Hourly Observations for January 3, 2020

Temp ( °F °C ) Dew Point ( °F °C ) Humidity (%) Winds ( mph kmh ) Pressure ( in mb ) Visibility ( mi km ) Precip ( " mm )
12:52 am 00:52 Cloudy 51 10.6 37 2.8 59 59 SSW 9 15 29.87 1011 10 16.0934 0.001 0.001
1:52 am 01:52 Cloudy with Light Rain 48 8.9 40 4.4 74 74 S 9 15 29.86 1011 10 16.0934 0.001 0.001
2:52 am 02:52 Cloudy with Light Rain 48 8.9 43 6.1 83 83 S 12 19 29.87 1012 10 16.0934 0.01 0.254
3:27 am 03:27 Cloudy with Light Rain 47 8.3 44 6.7 90 90 S 8 13 29.87 1012 10 16.0934 0.02 0.508
3:52 am 03:52 Cloudy with Light Rain 48 8.9 45 7.2 89 89 SSW 7 11 29.86 1011 9 14.48406 0.03 0.762
3:59 am 03:59 Cloudy with Light Rain 47 8.3 45 7.2 93 93 S 7 11 29.86 1011 6 9.65604 0.02 0.508
4:30 am 04:30 Cloudy with Light Rain 46 7.8 45 7.2 96 96 S 7 11 29.85 1011 10 16.0934 0.05 1.27
4:52 am 04:52 Cloudy with Light Rain 47 8.3 46 7.8 97 97 S 6 9 29.85 1011 8 12.87472 0.06 1.524
5:05 am 05:05 Cloudy with Light Rain 48 8.9 46 7.8 93 93 S 6 9 29.84 1011 7 11.26538 0.02 0.508
5:52 am 05:52 Cloudy with Light Rain 47 8.3 46 7.8 97 97 SSW 7 11 29.83 1010 10 16.0934 0.06 1.524
6:32 am 06:32 Cloudy with Light Rain 49 9.4 47 8.3 93 93 SW 7 11 29.83 1010 8 12.87472 0.01 0.254
6:52 am 06:52 Cloudy with Light Rain 48 8.9 47 8.3 96 96 SSW 6 9 29.82 1010 10 16.0934 0.02 0.508
7:52 am 07:52 Cloudy 49 9.4 46 7.8 90 90 SSW 9 15 29.83 1010 10 16.0934 0.001 0.001
8:52 am 08:52 Cloudy 49 9.4 47 8.3 93 93 SSW 9 15 29.88 1012 10 16.0934 0 0
9:35 am 09:35 Cloudy 49 9.4 47 8.3 93 93 S 7 11 29.85 1011 10 16.0934 0 0
9:52 am 09:52 Cloudy 49 9.4 47 8.3 93 93 S 7 11 29.85 1011 10 16.0934 0 0
10:52 am 10:52 Cloudy 50 10 48 8.9 93 93 S 7 11 29.85 1011 10 16.0934 0 0
11:52 am 11:52 Cloudy 52 11.1 49 9.4 89 89 S 9 15 29.81 1010 10 16.0934 0 0
12:34 pm 12:34 Cloudy 51 10.6 47 8.3 86 86 S 12 19 29.79 1009 10 16.0934 0 0
12:52 pm 12:52 Cloudy 51 10.6 47 8.3 86 86 S 8 13 29.8 1009 10 16.0934 0 0
1:52 pm 13:52 Cloudy with Light Rain 53 11.7 50 10 89 89 S 7 11 29.81 1010 10 16.0934 0.01 0.254
2:52 pm 14:52 Cloudy 52 11.1 49 9.4 89 89 S 8 13 29.81 1009 10 16.0934 0.001 0.001
3:52 pm 15:52 Cloudy 52 11.1 50 10 93 93 Calm 29.81 1010 10 16.0934 0.01 0.254
4:52 pm 16:52 Cloudy with Light Rain 51 10.6 50 10 96 96 S 6 9 29.83 1010 10 16.0934 0.001 0.001
5:52 pm 17:52 Mostly Cloudy with Light Rain 51 10.6 50 10 96 96 Calm 29.83 1010 10 16.0934 0.001 0.001
6:52 pm 18:52 Cloudy with Light Rain 51 10.6 50 10 96 96 SSW 6 9 29.83 1010 8 12.87472 0.01 0.254
7:28 pm 19:28 Cloudy 51 10.6 50 10 96 96 S 7 11 29.84 1011 7 11.26538 0.001 0.001
7:52 pm 19:52 Cloudy with Light Rain 51 10.6 51 10.6 100 100 S 6 9 29.84 1011 8 12.87472 0.001 0.001
7:56 pm 19:56 Cloudy with Light Rain 52 11.1 51 10.6 97 97 S 6 9 29.85 1011 9 14.48406 0.001 0.001
8:48 pm 20:48 Cloudy 54 12 52 11 94 94 Calm 29.85 1011 10 16.0934 0.01 0.254
8:52 pm 20:52 Cloudy 53 11.7 52 11.1 96 96 Calm 29.85 1011 9 14.48406 0.01 0.254
9:18 pm 21:18 Cloudy 50 10 49 9.4 96 96 Calm 29.82 1010 7 11.26538 0.001 0.001
9:52 pm 21:52 Cloudy 51 10.6 51 10.6 100 100 Calm 29.8 1009 7 11.26538 0.001 0.001
10:52 pm 22:52 Cloudy with Light Rain 51 10.6 51 10.6 100 100 E 3 6 29.81 1010 7 11.26538 0.01 0.254
10:58 pm 22:58 Cloudy with Light Rain 50 10 50 10 100 100 E 3 6 29.81 1010 7 11.26538 0.001 0.001
11:52 pm 23:52 Cloudy with Light Rain 52 11.1 52 11.1 100 100 SSE 3 6 29.79 1009 6 9.65604 0.01 0.254

Powered by AerisWeather